Theta_e
300 301 301 301 300 300 300 300 300 300 300 300 300 300 300 300 300 301 301 301 302 302 302 302 303 304 304 304 304 303 303 303 303 304 304 303 304 304 304 304 305 305 305 306 306 306 306 306 306 307 308 308 309 309 309 309 310 312 314 314 312 310 308 307 307 307 307 305 305 304 305 306 305 304 303 303 302 301 301 300 299 298 298 297 297 296 297 297
301 301 301 301 300 300 300 300 300 300 300 300 300 300 300 300 300 301 301 301 302 302 303 303 303 305 305 304 304 304 303 303 303 303 303 303 304 304 304 305 306 305 305 306 306 306 306 306 307 307 308 308 308 309 309 308 308 310 311 311 308 306 305 305 305 305 305 304 304 303 304 304 304 304 303 303 302 302 301 300 299 298 297 296 295 295 295 296
301 301 301 301 300 300 300 300 300 300 300 300 300 300 300 300 300 301 301 301 302 302 303 303 303 305 306 305 304 304 304 303 302 302 303 304 305 304 305 305 306 306 305 306 306 306 307 307 307 307 307 307 306 308 308 308 308 307 308 307 305 304 303 303 304 304 304 304 304 303 303 302 302 302 303 303 302 301 301 299 299 298 297 296 295 294 295 296
301 301 301 301 301 300 300 300 300 300 300 300 300 300 300 301 301 301 301 301 302 302 303 302 302 303 305 306 305 306 306 304 302 301 302 304 305 305 305 305 306 306 306 306 306 307 307 307 307 307 307 307 306 306 306 306 306 305 306 305 303 304 302 302 302 302 303 303 303 303 302 301 301 301 302 303 302 300 299 299 298 297 296 296 295 294 294 295
301 301 301 301 301 301 300 300 300 300 300 300 300 300 301 301 301 301 301 302 302 302 303 303 302 302 303 305 305 306 307 305 302 301 302 304 305 305 305 305 306 306 306 306 306 307 307 307 308 307 306 306 306 305 304 304 304 303 303 303 303 303 302 301 301 301 301 302 302 303 302 301 300 300 300 301 301 299 298 297 297 297 296 295 294 294 294 293
301 301 301 301 301 301 301 300 300 300 300 300 300 300 301 301 301 301 301 302 302 303 303 303 303 303 303 303 304 305 305 303 301 301 302 304 305 305 305 306 306 306 306 306 306 307 307 307 307 306 304 305 305 304 303 303 304 302 301 301 301 302 301 300 300 300 301 302 302 302 301 300 301 300 299 299 299 298 297 296 296 296 295 295 294 294 294 293
301 301 301 301 301 301 301 301 301 301 301 300 300 300 301 301 301 301 301 302 302 303 303 303 303 303 303 302 303 303 302 300 300 301 302 304 305 305 305 306 306 306 307 307 306 306 307 306 306 305 305 304 304 303 303 303 303 302 300 300 300 300 300 299 299 300 300 301 301 301 300 301 301 299 298 298 297 297 296 296 295 295 295 295 294 293 293 293
301 301 301 302 302 301 301 301 301 301 301 301 301 301 301 301 301 301 302 301 302 302 302 303 303 303 304 303 303 302 300 299 300 301 302 304 304 305 305 305 306 306 306 307 307 306 306 305 304 305 305 304 303 304 303 303 302 301 300 300 300 300 300 299 299 300 300 300 300 300 300 300 300 299 298 298 297 296 296 295 295 295 294 294 294 294 293 293
301 301 302 302 302 302 301 301 301 301 301 301 301 301 301 301 301 301 301 301 302 302 302 302 302 303 304 303 303 303 300 299 300 301 302 303 304 305 304 304 305 305 306 306 306 307 305 304 304 304 304 304 304 304 305 304 302 301 301 300 300 300 300 300 300 300 300 300 301 300 300 299 299 299 298 297 297 296 295 295 295 294 294 294 294 293 293 293
301 301 302 302 302 302 302 302 301 301 301 302 302 301 301 301 301 301 302 302 302 302 302 302 302 303 304 304 304 302 300 299 300 301 302 303 304 305 304 304 304 305 305 305 305 305 304 304 303 303 303 303 303 303 304 303 301 301 301 301 301 301 300 300 300 300 300 300 301 301 300 299 299 299 298 297 296 296 295 295 295 294 294 294 294 293 293 293
301 302 302 302 302 302 302 302 302 301 301 302 302 302 302 301 301 302 302 302 302 302 302 303 303 303 304 304 303 301 300 300 300 300 301 303 304 305 304 304 304 305 305 305 305 305 304 304 304 304 304 303 302 302 301 301 301 301 302 302 302 302 301 301 301 300 300 300 300 300 300 299 299 299 298 297 296 296 295 295 295 295 294 294 294 293 293 293
301 301 302 302 302 302 302 302 301 302 302 302 302 302 302 302 302 302 302 302 302 302 302 303 303 303 304 304 301 300 300 300 300 300 301 302 303 304 304 304 304 304 305 305 305 305 305 305 305 304 303 303 302 302 301 300 301 302 303 303 302 303 302 300 300 300 300 301 299 300 302 300 298 298 297 297 296 295 295 295 295 295 294 294 294 293 293 293
301 301 301 302 302 302 302 302 301 301 302 302 302 302 302 302 302 303 302 302 303 303 303 303 303 303 304 302 300 300 301 300 300 300 301 302 303 303 304 304 304 304 304 304 304 304 305 305 305 303 302 303 302 303 302 301 302 303 304 304 304 304 302 300 300 300 301 301 299 300 304 301 298 298 297 296 296 295 296 295 295 295 294 294 294 293 293 293
300 301 301 301 302 302 302 302 302 302 302 302 302 303 303 303 303 303 303 303 303 303 303 303 303 303 303 301 300 301 301 301 300 300 301 301 302 303 303 303 303 303 304 304 304 304 304 305 305 303 302 302 302 302 303 302 303 303 303 304 304 305 303 300 300 300 301 301 299 301 304 302 298 298 297 296 296 296 296 296 295 295 294 294 294 294 293 293
301 300 301 301 301 302 302 303 303 303 302 302 302 303 303 303 303 303 303 303 303 303 303 303 304 303 302 301 300 301 301 301 301 301 300 301 302 302 303 303 303 304 303 303 303 304 304 305 304 303 302 302 303 303 303 303 303 302 304 304 304 305 303 301 300 300 300 300 300 301 304 301 298 298 297 296 296 296 296 296 295 295 295 295 294 294 293 293
301 301 301 301 301 301 302 302 302 303 303 302 302 302 303 303 303 303 303 303 303 303 303 303 303 304 303 301 301 301 301 302 301 301 300 300 302 302 303 303 304 304 304 303 303 303 304 304 303 302 302 302 303 304 304 304 304 303 304 304 303 304 303 302 301 300 299 299 300 302 303 301 299 298 297 296 296 296 296 296 296 295 295 295 295 294 294 293
300 301 301 301 301 302 302 302 302 302 303 303 302 302 303 303 303 303 303 303 303 303 303 303 303 303 303 301 301 300 301 301 301 302 301 300 301 303 303 303 304 304 303 303 304 304 304 303 303 303 303 302 302 304 305 304 304 303 303 303 301 302 303 302 301 301 299 299 301 302 302 300 298 298 297 296 296 296 297 296 296 296 295 295 295 294 294 294
300 301 301 301 301 302 302 303 303 303 303 303 302 302 302 303 303 303 303 303 303 303 303 303 303 304 303 300 299 300 300 300 301 302 302 301 301 302 302 303 303 303 302 303 303 303 304 304 305 305 303 302 300 303 305 303 303 303 303 303 302 301 302 302 301 300 299 299 300 301 301 299 298 298 297 297 296 296 297 296 296 296 295 295 295 295 294 294
300 301 301 301 302 302 302 302 303 303 303 304 303 303 303 303 303 303 303 303 303 303 304 302 302 303 302 300 299 300 300 300 301 301 302 301 301 300 301 302 302 301 302 303 302 302 303 305 305 305 303 300 298 298 301 301 301 302 302 303 303 302 301 300 300 300 299 299 300 300 300 299 297 297 297 297 296 297 297 296 296 296 296 295 295 295 295 294
300 301 301 301 301 302 302 302 303 303 303 304 304 304 304 304 304 303 302 302 301 300 301 300 300 300 300 299 299 300 301 300 301 301 301 302 301 301 300 300 301 301 301 301 302 301 302 304 303 301 300 298 297 296 296 297 299 301 303 302 302 302 302 301 301 301 299 300 299 298 298 298 297 297 298 297 297 297 297 297 297 296 296 296 295 295 295 295
301 301 301 301 302 302 302 303 303 303 303 304 304 305 304 304 305 304 301 300 299 299 299 299 300 300 299 299 299 300 301 301 301 301 301 301 302 302 300 301 302 303 300 298 300 301 303 303 300 298 297 296 296 295 295 297 300 302 303 303 303 303 302 301 301 300 299 300 300 298 297 298 298 298 298 297 297 297 297 297 297 297 296 296 296 295 295 295
301 301 301 302 302 302 302 303 303 303 303 303 303 304 304 304 304 303 302 301 299 299 299 299 300 300 299 300 299 299 300 301 301 301 301 301 302 301 300 301 302 301 300 299 301 303 302 301 298 296 295 295 295 295 296 298 301 303 303 303 304 303 302 302 301 300 299 300 301 298 298 299 298 298 298 298 297 298 297 297 297 297 296 296 296 295 295 295
301 301 302 302 302 302 302 303 303 303 303 303 303 303 303 303 303 303 303 302 301 300 299 299 300 300 300 300 300 300 299 298 299 300 300 301 301 300 299 301 301 300 301 303 303 304 301 299 297 295 294 295 296 296 297 300 302 302 303 303 303 302 302 303 301 300 299 299 300 299 298 300 299 298 298 298 298 298 297 297 297 297 297 296 296 295 295 295
301 302 302 302 302 302 302 303 303 303 303 302 302 302 302 302 302 302 301 301 301 300 300 300 299 299 300 299 299 300 299 297 297 298 299 300 300 300 299 299 300 300 299 301 302 301 299 297 295 294 295 296 297 298 299 301 302 301 301 302 302 300 300 301 300 300 300 299 298 299 300 301 301 299 298 298 298 298 297 297 296 296 296 296 296 295 295 295
301 302 302 303 303 302 303 303 303 303 302 302 302 302 302 302 302 302 301 303 303 301 301 300 299 300 299 299 300 299 299 298 297 297 298 299 299 300 299 298 300 300 298 299 301 299 297 296 294 295 295 296 297 298 297 299 302 301 299 299 298 298 298 298 299 300 301 301 299 298 301 303 302 300 300 299 298 297 297 297 297 297 296 296 296 295 295 295
301 301 302 302 302 303 303 302 303 302 302 302 302 302 301 302 302 302 303 307 305 301 302 301 300 300 299 299 300 300 301 300 297 297 298 299 298 299 300 299 299 299 297 298 300 299 298 296 295 295 296 297 298 298 296 296 301 301 298 296 296 297 297 297 299 301 302 303 300 297 301 304 303 302 301 300 298 298 298 297 297 297 297 296 296 296 296 295
300 301 301 302 302 302 302 302 302 302 302 302 302 302 302 302 303 302 304 309 305 300 301 301 300 300 299 299 299 301 303 301 298 298 297 298 298 299 300 299 299 299 296 297 301 299 298 298 297 296 297 299 299 298 296 295 299 300 296 295 296 296 297 298 299 301 303 303 301 299 300 302 303 303 300 299 299 298 298 297 297 297 297 297 296 296 296 295
300 300 301 301 301 302 302 302 302 302 302 302 302 302 302 302 303 303 306 309 303 299 300 300 299 299 299 299 299 299 299 299 300 299 297 298 299 298 300 298 298 298 295 298 302 299 297 298 297 297 299 300 298 297 296 295 298 298 295 295 296 296 297 297 299 302 302 301 302 302 301 301 304 303 299 297 298 298 298 298 298 298 297 296 296 296 295 295
300 300 301 301 301 302 301 301 302 301 301 302 302 302 302 302 302 303 308 306 300 298 299 299 300 299 298 299 299 298 297 297 299 298 297 298 298 298 299 297 297 298 297 299 301 298 296 297 296 296 298 298 297 296 295 296 297 297 295 296 296 296 298 298 300 303 301 301 303 301 300 300 303 304 300 298 299 299 299 298 298 298 297 297 296 296 295 295
299 300 300 301 301 301 301 301 302 301 302 302 302 302 302 301 303 307 308 304 299 299 299 299 299 298 298 301 300 298 297 297 296 297 298 298 297 298 297 296 297 298 298 299 299 297 296 296 296 296 297 296 296 295 294 294 296 295 296 298 298 297 298 299 300 301 301 302 300 298 297 299 301 303 302 300 299 299 299 299 299 298 297 297 296 296 295 295
299 300 300 301 301 301 301 301 301 301 302 302 302 302 301 303 308 311 306 300 299 300 299 299 298 296 296 299 299 297 297 297 295 297 298 297 297 297 297 297 297 298 300 300 299 297 296 297 297 295 295 295 296 296 294 293 295 296 297 299 299 299 298 299 299 299 301 303 298 295 295 296 300 302 301 299 298 297 298 298 298 298 298 297 296 295 295 294
299 300 300 301 301 301 301 301 301 301 301 302 303 302 302 307 309 308 304 300 300 301 299 299 298 295 295 296 296 296 297 297 296 296 296 296 296 295 295 296 296 299 303 301 299 299 298 296 295 295 295 295 296 297 297 296 296 298 299 299 301 301 300 301 300 299 301 301 296 294 295 296 299 301 300 299 298 297 297 298 298 298 297 297 296 295 294 293
300 300 300 301 301 301 301 301 301 301 301 302 302 302 306 311 308 302 302 302 300 298 297 297 296 294 295 297 297 294 295 296 296 296 295 295 296 294 295 294 293 298 301 300 300 301 300 296 295 296 296 295 296 298 299 298 298 299 298 298 301 301 301 302 301 299 300 299 295 293 295 297 300 300 298 297 297 295 294 295 296 297 297 297 296 294 293 293
300 300 300 300 301 301 301 301 301 301 301 301 302 304 307 309 306 300 301 301 297 295 296 296 296 295 295 297 296 294 296 296 295 297 296 296 297 296 296 295 294 295 296 298 299 298 301 301 297 296 296 295 296 296 296 297 297 297 296 296 299 299 299 301 301 300 300 299 296 294 296 300 302 299 296 295 295 294 293 293 295 296 296 295 294 293 293 293
300 300 300 300 301 301 301 301 301 302 301 301 305 310 309 307 304 302 302 298 294 295 296 294 295 297 297 295 293 293 296 296 294 295 296 296 296 295 294 294 294 294 295 298 298 296 300 301 296 294 295 295 295 294 294 296 297 297 296 297 298 297 297 298 296 295 296 296 297 297 298 301 300 297 294 294 295 294 294 294 294 295 294 293 293 293 293 293
300 300 300 300 301 300 301 301 301 301 300 303 311 312 306 303 299 300 301 297 295 296 297 297 297 298 299 297 295 295 295 295 295 296 296 294 295 295 294 293 293 293 294 297 297 296 299 299 295 294 295 293 294 294 294 295 297 298 297 298 297 294 295 297 294 291 292 296 299 298 299 300 299 297 295 294 295 295 294 294 294 294 293 292 293 293 293 293
300 300 300 300 301 300 301 301 301 302 299 305 314 307 298 297 295 296 298 296 295 294 295 299 299 297 300 298 297 297 295 295 295 297 297 294 295 295 293 294 293 292 293 294 295 295 297 299 296 294 295 294 292 294 294 294 295 298 298 297 295 293 294 296 297 295 296 299 299 297 298 299 299 299 297 295 295 295 295 295 294 293 293 293 293 293 293 292
300 301 300 300 301 301 301 301 301 301 300 306 312 302 294 295 294 294 295 295 294 294 296 300 298 295 298 299 298 296 296 297 297 296 296 295 296 295 293 294 293 292 292 293 295 293 293 299 297 293 294 294 292 294 296 295 294 295 296 295 294 296 296 296 297 297 298 298 298 296 296 297 298 299 297 296 296 295 295 295 295 294 294 293 293 293 293 292
301 301 300 301 301 300 301 301 300 300 303 308 308 301 295 295 294 294 296 295 294 295 296 298 297 295 296 297 297 295 295 297 296 295 296 296 296 295 293 294 293 292 292 292 294 294 292 297 299 294 292 293 294 296 297 297 295 294 295 294 293 295 296 296 295 295 297 297 297 297 296 298 299 297 296 296 295 294 294 294 294 294 294 293 293 293 293 292
301 301 301 301 301 301 300 301 300 302 306 305 301 298 295 296 296 294 296 295 294 295 296 295 295 297 297 296 295 294 294 296 295 296 297 295 295 295 294 294 293 292 292 292 293 294 292 294 298 297 294 294 296 296 295 295 295 295 296 296 294 294 294 295 294 293 294 296 296 295 296 299 298 295 295 295 294 293 293 293 294 294 293 293 293 293 293 292
301 301 301 300 301 301 301 301 299 298 300 297 294 295 294 296 296 294 295 295 293 294 294 293 294 295 297 297 295 293 294 296 295 296 296 295 295 295 294 293 292 292 292 293 293 294 293 294 296 297 297 297 296 293 292 292 293 294 296 296 295 295 295 296 295 293 291 293 294 293 295 298 296 294 294 294 293 293 293 293 294 293 293 293 293 293 292 292
301 301 301 301 301 300 301 302 295 291 295 296 294 295 295 296 295 294 294 294 294 294 293 293 294 293 295 296 295 293 294 296 296 295 296 295 295 295 294 292 291 291 292 293 293 293 292 293 294 296 297 296 293 290 290 290 290 292 293 293 294 294 294 296 297 294 292 292 292 291 293 295 294 294 294 294 293 293 292 293 293 293 293 293 292 292 292 292
300 301 301 301 301 300 301 303 297 292 293 293 292 293 295 295 295 295 294 293 294 294 295 295 294 293 293 293 293 294 294 295 295 295 295 294 294 294 293 291 291 292 292 293 293 292 292 292 294 297 296 293 290 290 289 288 289 292 292 291 292 293 293 294 293 292 293 293 293 292 294 296 294 294 294 293 292 292 293 294 294 293 293 293 292 292 292 292
300 300 300 300 300 301 302 304 303 299 293 293 294 294 294 294 294 294 293 293 294 294 296 295 293 293 293 290 291 293 293 295 295 293 294 294 294 294 292 291 291 292 292 293 293 293 293 293 294 296 297 296 294 294 293 291 291 293 293 292 291 291 290 290 290 290 292 294 295 294 296 297 295 294 293 293 293 294 295 294 294 293 293 293 292 292 292 291
300 300 300 299 300 301 300 300 302 300 295 296 297 295 294 294 293 293 293 293 293 293 295 294 293 293 292 290 292 291 291 294 294 292 292 293 293 292 292 292 291 292 293 293 293 293 293 293 294 296 298 298 298 298 296 294 293 293 293 291 291 290 291 291 291 291 293 294 293 294 295 296 296 295 294 294 294 294 294 294 293 293 293 293 292 292 292 291
301 302 301 300 300 300 298 296 298 299 297 299 299 295 295 296 293 293 293 293 293 293 294 294 293 293 293 292 295 294 291 291 292 292 293 293 292 291 291 292 291 292 294 293 292 292 290 290 293 295 296 297 298 297 294 292 293 293 293 292 291 291 291 292 292 292 293 293 293 293 294 294 295 294 294 294 294 294 294 293 293 293 292 292 292 292 291 291
300 301 300 301 300 299 298 296 296 297 298 299 298 296 296 296 293 293 293 292 294 294 293 293 293 294 295 295 297 296 293 291 291 293 293 292 291 290 291 291 291 293 294 293 292 291 291 292 292 293 295 295 295 295 292 291 292 292 292 292 292 291 291 291 292 292 293 293 293 294 293 293 293 293 294 294 293 294 294 293 293 292 292 292 291 291 291 291
300 299 297 299 300 299 299 298 295 294 295 296 295 295 296 296 295 296 294 292 294 294 293 295 294 294 295 294 296 296 294 294 294 293 292 292 290 290 291 290 291 293 293 293 292 291 292 293 291 290 294 293 291 292 291 290 291 291 291 291 291 291 291 291 292 292 292 292 293 293 293 292 293 293 293 293 293 293 293 292 292 292 291 291 291 291 291 291
299 298 296 297 298 296 296 296 294 294 295 295 296 295 297 298 297 295 293 293 294 293 293 295 296 295 294 293 294 297 296 297 297 295 293 293 291 291 292 291 291 292 292 292 291 290 292 293 290 289 292 292 292 292 291 290 290 290 290 291 291 291 291 291 291 291 291 292 292 292 292 292 292 292 293 293 293 292 292 292 291 291 291 291 291 291 291 291
298 298 297 297 296 293 293 294 294 297 296 296 298 296 296 298 297 294 293 294 296 295 293 295 295 294 293 292 293 296 296 296 296 295 293 293 293 292 292 293 292 291 291 291 290 289 291 292 290 289 291 293 292 291 290 290 290 290 290 291 291 291 291 291 291 291 291 291 291 291 291 291 292 292 293 292 292 292 291 291 291 291 291 291 291 291 291 291
298 298 297 298 296 293 293 293 293 296 298 297 298 297 295 297 296 294 294 293 294 295 294 294 295 293 292 292 293 294 294 293 294 294 292 293 294 293 293 293 293 292 292 290 289 290 290 291 289 289 292 294 292 290 291 291 291 291 291 292 292 291 291 291 291 291 291 291 291 291 291 292 292 293 293 292 292 292 292 292 292 292 292 292 292 291 291 291
297 298 297 298 299 295 293 293 292 296 299 297 296 295 296 296 294 294 296 294 292 294 294 293 294 294 293 293 294 294 294 293 293 293 293 293 293 292 292 292 292 293 293 291 289 288 289 290 290 290 293 293 291 291 291 291 292 295 295 295 294 292 290 290 291 291 291 291 291 292 292 293 293 293 292 292 293 293 292 293 292 292 292 291 291 291 291 291
Wind_Speed
16 17 17 16 15 14 15 16 16 17 17 16 14 13 13 15 18 20 22 24 25 26 26 22 11 2 1 6 10 22 34 38 42 48 49 38 28 28 29 27 24 19 17 17 14 12 8 5 4 6 9 12 14 12 12 13 12 8 4 6 6 5 5 4 5 6 9 10 9 9 8 12 13 12 13 16 25 26 26 26 22 21 19 16 15 16 18 22
16 17 17 16 15 14 15 15 16 16 17 17 14 12 10 11 13 14 15 17 20 24 28 31 24 7 5 8 8 14 27 37 44 47 41 31 28 30 29 28 26 20 16 16 14 12 10 10 10 10 12 15 14 12 13 13 16 11 4 8 7 5 7 7 9 11 11 12 13 13 13 15 13 10 10 15 20 20 22 21 19 20 19 16 15 17 22 26
15 16 17 16 15 14 14 14 15 15 16 17 16 14 12 11 11 11 11 11 12 16 21 30 34 21 6 8 8 11 19 34 46 44 35 30 30 29 27 28 28 22 16 14 13 11 13 16 17 17 20 19 14 17 17 12 13 12 7 9 7 9 12 12 13 14 14 16 18 16 17 21 18 11 12 17 19 20 19 16 15 17 17 16 16 20 25 28
15 16 16 16 15 14 13 14 14 14 14 15 16 16 16 16 15 13 12 10 10 9 11 20 33 34 18 5 4 4 10 24 37 36 31 29 30 28 25 26 27 24 17 12 13 14 18 21 22 23 24 17 17 24 20 12 10 10 10 10 9 12 13 13 13 12 14 15 17 16 17 21 20 18 14 10 12 16 16 13 13 13 13 13 13 19 26 30
15 15 15 15 14 13 12 13 13 14 15 14 14 15 17 20 21 20 18 15 13 8 4 9 22 32 29 18 8 4 3 8 21 30 28 27 27 25 23 23 24 23 18 9 9 13 18 22 26 27 21 12 17 21 16 13 15 14 14 14 12 12 12 11 11 11 10 12 15 16 15 14 16 23 21 14 12 11 12 11 10 10 10 11 10 13 19 25
15 15 15 14 14 13 12 12 12 13 14 15 14 13 14 17 21 24 22 21 19 15 8 4 9 17 24 27 25 22 16 6 16 27 26 24 23 23 22 21 21 19 16 11 12 14 19 27 27 23 18 15 19 17 14 14 15 16 13 17 17 13 15 13 13 12 11 15 16 15 15 14 17 21 21 22 20 13 11 11 10 11 10 11 12 13 16 19
15 15 14 14 13 12 11 10 9 10 11 13 14 14 13 13 17 21 24 23 21 20 16 11 8 5 9 19 30 37 31 16 18 23 22 22 20 21 21 18 18 19 19 23 25 26 29 33 26 20 19 17 19 21 25 26 23 22 13 17 20 18 20 17 16 16 16 21 19 19 20 17 19 17 16 21 20 14 12 11 11 11 11 12 14 17 20 23
14 14 14 14 13 12 11 10 9 8 9 9 10 13 13 13 14 16 20 23 23 22 18 15 13 10 4 6 25 39 31 21 20 21 20 20 18 18 18 17 19 20 21 25 28 30 31 28 19 18 19 14 15 19 26 29 24 20 15 16 19 19 20 17 17 16 16 18 18 23 23 19 19 18 19 19 15 13 12 12 12 12 13 14 15 16 20 26
15 15 15 14 14 12 11 9 9 9 8 8 7 9 10 12 14 15 16 17 19 22 22 20 15 14 10 9 25 30 21 19 18 19 19 18 17 16 16 17 20 20 23 24 24 28 27 24 19 18 18 14 15 13 16 20 13 14 20 19 20 19 18 17 17 15 14 12 14 22 18 12 12 11 16 16 11 11 10 11 12 12 14 15 16 17 19 24
15 15 15 16 15 14 12 10 9 9 9 8 6 6 7 8 11 14 15 14 12 12 17 23 20 15 14 23 33 20 13 17 15 16 18 16 15 16 18 20 19 18 21 22 24 30 31 29 27 26 22 16 18 17 20 20 14 19 24 22 21 18 15 14 15 13 13 13 15 19 15 12 9 5 9 10 8 8 8 11 11 12 14 14 15 15 18 22
14 15 16 17 17 16 14 12 10 9 9 9 8 6 5 7 9 11 13 15 16 14 10 12 15 17 21 32 34 16 13 17 14 14 17 16 15 16 21 22 21 19 18 19 21 23 24 23 21 20 18 18 23 25 25 21 18 20 22 21 19 17 15 13 10 8 7 10 12 15 16 16 13 9 8 6 6 7 8 10 10 12 12 13 14 15 17 20
14 15 16 16 18 18 16 14 11 10 9 9 9 6 5 6 8 10 10 11 14 19 17 12 9 10 21 34 30 16 15 16 13 13 15 17 16 15 18 19 20 21 20 22 22 20 20 18 15 14 12 15 18 16 16 13 11 11 11 14 13 12 14 14 8 5 2 5 2 4 8 10 10 8 6 4 5 6 8 8 9 10 11 12 13 14 16 19
13 14 15 16 17 18 19 17 15 13 11 9 8 7 6 6 8 10 10 10 10 12 14 18 16 12 20 28 22 15 14 14 10 8 12 17 16 14 16 16 16 17 19 23 26 25 26 24 23 23 18 12 10 11 12 7 6 6 4 6 7 8 9 13 10 7 1 2 3 5 2 4 5 4 4 4 5 6 7 7 7 8 9 10 11 13 16 18
12 13 13 14 15 17 18 17 17 17 15 12 9 6 4 5 7 9 9 10 11 10 9 12 14 17 25 22 17 16 12 10 9 7 11 14 13 13 14 15 15 14 16 19 22 24 23 21 25 28 23 16 12 12 10 5 4 3 1 2 2 2 3 8 11 9 1 3 6 4 3 3 4 3 4 4 5 5 6 7 6 7 8 9 10 11 15 18
11 11 11 11 11 11 11 11 13 15 16 15 13 9 5 3 6 9 10 10 12 11 10 11 9 15 23 18 15 16 10 9 11 12 12 10 11 13 11 14 17 17 17 17 18 21 20 21 24 21 16 15 12 8 6 4 4 2 0 3 2 1 2 3 9 11 3 3 6 4 2 4 5 6 6 5 4 4 5 6 5 6 6 7 8 9 12 15
10 9 10 9 9 8 7 7 9 10 12 13 15 15 9 3 5 9 11 11 13 12 10 11 13 16 17 11 12 16 17 16 14 12 11 9 9 10 10 11 15 17 18 18 18 19 19 19 20 17 12 10 5 3 5 4 3 3 2 3 2 1 2 1 6 12 8 4 3 3 1 4 4 8 7 5 5 3 3 5 4 5 5 5 6 7 9 10
8 8 8 9 8 8 8 7 7 9 8 9 15 20 17 9 3 2 6 8 10 13 14 13 11 15 15 9 10 18 23 21 15 10 9 9 8 8 10 10 14 16 14 14 16 18 19 14 11 11 12 9 4 0 4 4 3 3 2 3 3 2 1 0 2 10 12 4 2 2 3 4 5 10 9 7 7 5 4 5 4 3 3 4 5 6 7 7
8 8 8 8 9 9 8 7 8 11 8 6 11 18 22 22 12 3 2 2 2 5 11 13 8 7 11 14 12 13 19 21 18 12 8 7 6 6 6 7 9 8 6 7 10 15 17 9 4 6 9 9 7 5 3 4 2 2 3 3 3 2 3 3 2 8 12 4 0 1 4 5 6 10 10 9 8 7 7 5 4 4 3 3 4 4 5 5
8 8 8 9 9 9 8 6 7 11 10 6 7 11 14 20 21 17 14 11 10 7 5 13 13 5 3 14 13 7 15 22 21 15 8 4 4 4 4 5 4 3 2 4 7 11 9 4 4 6 7 7 8 7 4 3 3 2 4 3 3 3 3 2 2 5 7 4 2 2 1 5 7 9 10 11 9 8 8 6 6 6 5 4 4 4 4 4
8 8 8 8 9 9 9 7 7 9 10 7 4 3 3 6 10 17 25 27 25 18 10 12 15 8 4 14 15 7 10 19 23 20 12 6 4 4 3 4 5 8 6 1 4 8 5 5 6 5 4 5 5 5 3 4 4 2 3 4 3 2 3 1 1 3 4 3 1 2 2 4 7 8 10 11 10 10 10 9 8 7 7 6 5 5 4 3
9 9 9 8 9 9 9 8 8 6 9 10 7 6 5 4 4 7 19 26 23 21 19 17 15 11 7 14 20 12 7 14 22 22 17 11 6 4 6 4 3 7 6 1 2 5 5 7 6 3 3 3 3 2 2 3 2 1 2 2 2 1 2 0 2 4 3 3 1 1 3 6 8 8 11 12 12 13 13 12 11 9 8 7 6 6 5 4
11 10 10 10 9 10 10 9 8 6 7 7 8 12 14 12 11 10 12 15 16 18 19 19 19 17 12 12 18 18 14 16 22 24 20 16 13 9 11 11 6 5 5 2 2 3 6 6 3 3 2 2 1 1 1 1 1 1 1 0 1 2 2 2 1 4 2 3 2 4 6 8 9 10 13 15 15 14 14 13 12 11 10 9 8 7 6 6
11 11 11 11 10 10 9 9 7 6 6 4 4 9 13 13 13 12 12 10 11 15 16 18 20 21 18 14 14 18 22 19 19 25 24 19 17 16 13 11 8 6 7 6 2 3 5 5 4 3 1 2 1 1 1 2 1 1 1 2 1 2 3 1 1 3 3 3 3 3 6 8 10 11 13 18 18 15 14 14 13 13 12 11 10 9 8 7
10 10 10 10 10 9 8 8 8 6 6 5 5 7 8 9 9 9 8 7 5 9 14 16 19 20 20 19 13 11 19 20 18 24 26 20 13 11 10 8 6 7 8 9 9 9 6 5 5 2 1 1 1 3 1 2 1 1 1 2 1 1 3 2 2 4 4 3 2 3 7 7 9 13 12 15 18 17 16 16 16 16 15 13 12 12 11 10
8 9 9 9 9 8 7 7 8 8 8 7 6 6 6 5 5 5 4 4 3 7 10 11 15 17 18 19 13 4 9 17 20 22 22 21 13 5 5 5 5 4 3 5 8 10 7 5 5 1 2 1 0 2 4 3 2 2 0 1 1 1 3 5 5 5 4 3 2 2 6 3 5 11 13 11 13 16 18 19 19 18 17 16 14 14 13 11
8 8 8 8 8 8 7 7 9 8 8 8 7 5 5 4 4 3 2 2 1 6 9 8 9 13 15 19 14 2 3 9 15 21 20 18 14 5 3 5 4 3 1 1 4 4 4 4 3 1 2 2 1 2 3 4 3 1 1 1 1 2 4 6 4 4 4 2 1 1 5 5 2 6 9 11 13 15 16 18 19 19 17 16 15 14 13 13
7 8 7 8 8 8 6 7 8 8 7 7 6 5 3 3 4 2 1 1 2 4 6 6 6 9 12 17 16 4 1 8 8 16 20 16 14 8 4 4 3 4 1 1 2 3 2 3 5 4 1 1 1 2 2 3 4 1 1 1 3 5 7 5 5 5 3 3 1 4 3 6 7 3 1 6 11 13 13 15 18 18 17 16 15 14 13 13
7 7 7 8 8 7 7 7 7 7 7 6 5 4 2 1 1 1 0 2 2 3 4 5 4 8 8 12 19 11 5 10 6 10 18 14 13 11 9 6 2 3 1 3 1 3 2 5 6 5 3 1 1 2 2 3 3 2 1 3 5 5 5 4 4 4 1 4 3 4 3 5 7 2 3 1 7 10 13 14 16 18 18 16 15 14 14 13
7 8 8 8 8 8 8 8 7 7 7 6 5 4 3 3 1 1 1 1 2 2 3 5 4 9 9 6 16 17 11 12 8 9 13 11 12 10 8 6 4 3 3 3 3 4 2 4 4 4 4 3 3 3 3 3 2 3 1 3 2 2 2 2 3 2 1 3 3 2 3 4 6 2 2 2 3 7 10 11 14 18 19 18 16 14 13 13
7 8 9 8 8 9 8 7 7 7 7 6 5 4 4 4 1 1 2 1 1 1 3 6 4 9 11 3 8 15 11 11 13 12 11 12 14 15 10 7 5 3 4 7 6 4 2 2 2 3 3 4 5 3 2 3 2 2 2 3 3 2 1 1 1 1 2 3 0 3 0 3 4 1 2 2 1 2 4 5 10 17 20 19 17 14 12 12
7 7 8 8 8 8 8 8 8 8 8 7 6 6 4 2 0 1 1 0 0 2 2 4 3 6 9 3 4 10 7 9 15 14 11 10 13 16 11 5 5 1 2 5 5 3 3 2 2 2 3 5 4 2 1 3 3 2 3 3 3 2 2 2 1 1 4 2 2 2 2 4 5 2 2 2 1 2 4 4 6 13 18 19 16 13 11 11
7 7 8 8 7 8 7 8 8 7 8 8 7 6 3 0 1 0 1 1 1 1 1 2 2 3 4 2 3 7 4 5 11 9 7 6 7 10 9 5 4 2 1 4 2 1 3 2 2 1 2 7 4 3 1 3 3 3 3 3 4 2 1 2 1 2 3 1 2 1 3 4 8 6 3 5 4 4 6 6 7 9 15 18 15 12 10 9
6 7 7 8 7 7 7 6 7 7 8 9 7 4 2 1 1 1 1 2 2 3 2 1 3 2 2 1 4 5 2 2 7 6 3 4 4 4 6 8 6 2 2 4 3 3 2 2 3 0 1 8 7 2 2 1 3 4 3 4 4 3 3 3 2 1 2 1 2 0 3 5 7 3 4 6 6 7 7 7 7 6 11 15 13 11 10 7
5 6 6 7 7 7 7 6 7 7 7 9 6 2 2 1 0 1 1 2 2 3 3 2 2 2 3 3 3 4 1 2 5 5 3 3 4 3 4 9 10 4 2 2 2 3 1 1 4 3 2 7 6 4 3 3 3 3 1 3 2 3 3 4 2 2 3 3 1 1 1 5 4 2 4 4 5 6 5 3 1 5 12 13 11 10 9 6
5 6 6 6 6 6 6 6 6 6 7 7 4 2 1 0 1 1 0 1 0 1 1 1 2 1 3 3 1 2 1 2 3 4 5 3 2 3 3 5 10 7 2 2 1 1 3 1 2 2 2 5 4 2 2 3 1 1 1 2 1 2 2 3 1 2 2 4 3 3 3 4 1 4 4 4 3 5 5 4 5 8 11 11 9 8 6 6
6 6 6 6 6 6 5 6 5 6 6 5 2 2 1 0 1 1 1 0 1 1 1 1 1 1 2 1 1 1 1 2 2 2 4 3 1 2 2 2 5 5 3 2 2 1 3 1 2 1 1 3 4 2 2 3 2 1 1 1 2 2 2 2 0 1 1 3 2 2 4 5 0 3 4 3 3 3 2 2 4 4 6 8 7 7 7 7
6 7 7 6 6 6 5 5 4 4 5 3 2 2 1 1 1 0 1 1 1 1 1 1 1 2 1 1 1 3 2 1 2 2 1 1 1 2 1 1 1 3 2 1 0 1 3 2 1 1 1 2 3 1 1 3 3 3 2 2 2 1 0 1 2 1 2 4 2 1 6 7 2 1 1 3 3 1 2 4 3 3 4 6 7 8 9 11
7 7 6 6 7 6 5 5 4 3 3 3 3 2 1 1 1 1 1 1 1 0 1 0 2 2 1 1 2 4 4 2 2 3 1 1 1 1 1 0 1 3 2 1 1 2 2 4 1 1 1 2 2 3 1 4 5 3 2 2 0 1 0 0 2 3 3 5 4 2 6 7 3 1 2 4 6 6 4 3 4 6 6 7 10 12 14 18
7 6 5 6 7 6 6 5 3 2 1 3 2 2 1 1 1 2 2 2 1 0 1 1 1 2 1 2 2 2 4 3 2 2 1 1 1 1 1 1 1 3 3 1 1 1 1 2 0 2 1 1 1 1 2 2 4 3 3 1 1 1 2 2 1 2 3 5 5 3 3 4 1 1 3 6 7 7 7 5 4 5 7 10 13 17 21 27
6 5 4 7 7 7 6 3 2 2 2 2 1 2 1 1 2 2 2 2 1 1 1 2 1 1 1 1 1 2 3 3 2 2 1 2 1 1 0 2 1 3 3 1 1 0 0 1 2 0 0 2 1 2 3 4 2 1 0 0 1 1 1 2 1 1 2 4 4 4 5 4 1 2 3 5 6 5 3 4 5 6 9 12 15 19 24 29
6 3 3 7 7 7 6 4 7 7 3 2 2 1 1 2 4 3 3 3 3 2 3 2 2 2 2 1 1 1 1 2 2 2 1 1 1 0 1 1 2 3 2 0 1 2 1 1 3 4 3 2 1 2 3 4 3 3 2 1 1 1 1 3 2 1 1 3 2 3 7 7 1 1 2 3 4 3 2 3 8 12 15 18 19 21 24 27
4 2 4 7 7 6 5 5 7 6 2 2 3 2 2 2 3 3 3 3 3 3 4 3 2 2 2 1 1 1 0 1 1 1 1 0 1 1 1 0 2 3 3 1 1 2 1 0 2 4 4 3 3 3 2 2 1 2 2 1 1 1 1 3 4 0 0 2 0 0 5 5 1 2 2 3 3 1 2 7 13 16 19 21 22 24 26 27
3 3 5 6 6 5 4 4 3 4 3 3 4 4 4 3 2 2 1 2 2 1 2 2 1 2 1 1 2 2 2 1 1 1 0 1 1 0 1 1 1 2 1 1 0 1 0 1 2 4 3 0 0 0 1 1 0 1 1 0 1 1 1 2 2 2 2 3 2 2 5 4 1 2 1 2 3 4 10 15 19 20 22 22 22 24 27 29
3 3 4 5 6 4 2 2 1 1 2 2 4 4 4 4 3 2 1 2 2 1 1 2 0 1 2 2 2 2 2 1 1 1 1 2 1 1 3 3 0 1 0 1 1 1 1 1 1 5 4 0 1 1 1 1 1 2 1 1 2 2 4 2 1 2 3 6 6 6 8 4 1 2 3 4 6 12 18 22 24 24 23 23 23 26 29 32
2 2 3 6 8 5 4 4 4 4 2 2 3 2 3 4 4 3 2 2 2 1 1 2 2 3 3 2 2 2 1 1 1 1 1 2 2 2 3 4 1 1 1 1 2 1 2 1 1 3 4 3 4 3 2 2 2 3 1 3 4 4 4 1 1 2 5 5 7 7 8 6 5 6 8 10 13 17 21 24 26 27 25 24 25 28 32 34
2 1 2 5 8 9 10 7 6 7 4 3 3 1 1 2 2 2 3 2 2 3 3 3 3 3 3 1 1 2 0 1 1 2 2 2 2 2 4 5 3 2 3 3 2 2 1 1 3 4 4 6 7 4 1 2 5 6 5 5 5 6 6 4 3 5 5 4 7 11 13 14 15 15 15 15 15 17 20 25 28 29 28 27 29 33 35 37
1 1 1 2 5 8 11 8 6 7 6 4 2 2 3 3 1 1 2 0 2 3 2 2 2 2 2 3 2 1 1 0 1 1 2 2 1 1 3 4 4 4 3 3 2 2 1 2 2 3 7 9 9 7 2 0 7 11 9 8 7 7 8 7 9 9 4 5 9 8 9 14 16 15 16 16 16 17 21 25 27 28 29 31 35 37 38 38
1 1 1 2 1 2 4 4 6 10 8 4 2 2 3 3 2 2 2 1 2 2 1 0 2 3 2 3 2 1 1 1 1 2 2 1 1 2 2 3 4 5 4 3 2 2 1 3 2 2 6 9 8 10 7 4 9 12 11 10 11 10 11 12 15 15 9 9 11 7 8 16 18 16 17 19 19 20 23 27 29 30 31 34 36 36 36 36
3 4 4 4 3 4 4 5 9 11 9 5 2 2 3 4 4 3 2 2 1 2 2 2 3 4 3 2 1 1 2 1 1 2 3 2 2 3 1 1 3 5 4 3 2 1 2 2 2 1 7 10 8 9 7 6 9 12 12 12 13 14 15 16 17 17 15 16 18 17 19 20 18 18 19 22 24 24 24 26 29 31 33 34 32 30 31 32
4 4 5 7 7 7 8 8 8 7 4 2 2 2 4 5 5 3 3 4 2 2 4 2 1 4 3 1 1 1 2 2 2 1 4 3 2 3 2 2 3 3 3 2 1 2 2 1 2 2 5 9 6 4 3 4 8 12 14 14 14 14 14 15 16 14 13 15 17 19 20 17 16 20 21 21 22 21 21 24 28 29 29 28 27 27 29 31
5 5 7 7 6 4 5 5 4 2 1 1 2 3 4 4 6 6 4 4 3 2 5 5 4 6 2 1 4 4 4 3 2 1 4 4 3 3 3 3 5 5 3 2 2 2 2 1 2 2 4 5 2 3 4 7 10 13 15 14 12 9 8 9 10 8 9 11 12 13 13 10 10 14 15 16 19 19 20 23 26 27 26 25 27 30 32 33
5 5 7 6 3 2 4 4 2 1 2 2 2 5 4 5 10 10 4 3 5 3 4 7 8 6 2 2 6 6 4 4 4 3 4 6 5 5 4 5 8 7 4 3 1 1 2 2 2 0 5 3 1 2 4 7 10 8 5 4 5 6 5 6 8 9 11 9 8 7 8 9 13 15 14 16 19 19 21 24 26 27 28 28 29 31 34 34
Wind_Direction
53 51 49 52 58 63 66 66 66 62 59 59 64 69 66 63 61 60 61 62 62 55 48 40 26 328 91 65 47 39 34 35 42 43 43 34 16 12 12 15 17 16 22 18 20 26 36 71 75 99 107 100 82 66 71 67 60 64 69 95 90 73 68 43 57 87 107 107 92 81 81 93 86 77 85 71 66 73 73 68 69 69 66 64 64 71 76 80
54 52 50 52 56 61 63 62 62 60 56 54 56 61 60 57 53 51 51 51 54 49 44 40 38 49 132 99 70 46 33 32 40 41 38 29 19 16 14 16 16 17 23 20 28 41 58 88 97 107 103 78 59 65 75 59 52 50 63 87 71 67 70 57 78 88 96 105 94 79 76 75 72 72 84 81 67 67 71 64 65 65 58 56 57 70 77 80
57 55 53 54 58 61 62 60 59 57 54 51 50 49 46 38 30 25 19 14 25 35 35 38 41 43 85 125 91 58 32 28 32 28 28 27 21 19 16 16 16 16 22 28 39 61 82 92 101 102 88 69 53 72 73 54 49 35 51 87 77 87 81 68 77 84 92 103 96 84 78 69 58 63 84 89 76 59 59 54 53 58 53 51 56 71 79 82
60 58 57 58 61 64 63 60 57 55 53 50 47 44 41 38 32 28 21 4 354 5 19 35 43 42 45 92 133 57 27 30 24 14 19 26 21 23 22 19 18 16 17 33 51 77 92 93 104 96 79 69 59 68 59 45 68 43 53 90 94 98 83 67 74 79 88 94 94 90 81 70 56 52 63 85 79 57 50 47 49 54 53 53 58 68 75 80
60 59 59 59 62 66 66 63 60 56 53 50 47 43 41 39 38 38 40 36 22 16 23 38 48 49 46 53 83 65 22 31 12 8 20 26 24 27 29 29 25 18 14 26 57 78 92 97 102 85 65 62 63 66 53 53 89 73 58 78 87 101 89 75 79 74 85 92 90 85 73 76 68 53 50 62 75 62 50 51 56 60 59 59 60 64 67 72
59 58 59 59 61 64 65 66 62 58 54 52 50 46 44 41 39 38 39 43 41 42 53 59 53 54 51 55 69 72 72 59 360 9 21 27 31 33 35 35 34 31 32 60 87 87 90 90 89 78 65 65 65 70 63 57 94 93 63 68 74 85 89 85 81 73 88 92 83 81 79 87 86 65 53 62 70 69 64 62 65 66 66 67 69 71 70 70
59 59 60 59 60 61 61 63 59 56 52 53 54 52 50 44 41 39 40 43 44 48 54 57 45 48 61 52 60 66 64 44 12 15 23 31 39 43 43 41 43 45 54 73 82 84 86 81 74 75 79 74 72 81 77 68 81 97 87 75 76 77 84 84 80 79 84 85 83 87 83 74 79 77 61 62 65 67 69 67 68 70 71 74 75 75 77 79
61 60 60 58 58 57 57 57 52 49 47 53 55 54 53 49 48 45 46 50 51 53 53 53 45 46 75 39 53 58 45 21 19 22 26 38 42 48 49 48 50 48 59 70 76 82 82 75 63 69 80 82 89 90 88 78 66 82 99 92 87 82 82 82 81 84 80 82 88 82 74 69 78 81 65 60 62 64 69 69 68 72 75 77 76 75 78 81
60 59 58 55 54 53 52 51 48 45 42 46 48 50 52 51 53 49 51 57 57 56 56 56 47 46 73 76 62 56 28 11 23 24 30 44 42 45 48 48 53 53 62 68 77 84 79 72 67 75 85 88 91 85 90 89 66 84 102 100 95 87 82 79 74 74 71 77 88 79 71 69 78 77 62 54 57 63 67 66 66 73 75 76 76 76 79 80
59 58 57 53 51 49 49 48 44 43 38 37 36 40 46 44 47 46 46 50 46 44 55 63 59 56 74 72 66 58 17 21 27 28 37 47 47 52 52 50 52 56 66 70 75 82 82 83 83 85 85 77 78 73 77 94 111 107 104 101 97 92 82 75 74 69 66 67 77 84 77 57 54 82 71 51 51 60 64 64 66 74 74 74 76 77 79 80
59 59 57 53 51 49 49 48 42 39 34 32 28 26 40 39 38 40 45 49 47 45 52 69 63 56 61 65 65 53 23 31 26 29 42 49 52 55 54 52 52 57 67 70 73 79 83 88 88 85 79 80 82 77 80 97 118 112 106 101 96 93 74 55 63 61 67 75 74 89 85 58 47 67 77 52 53 61 67 71 69 75 76 77 78 78 79 81
59 59 58 55 53 52 50 48 42 36 30 29 27 27 34 37 43 43 47 51 51 54 55 59 59 48 56 59 58 43 32 35 25 26 39 48 50 50 51 52 52 58 66 73 77 79 84 90 95 92 87 96 90 83 93 101 111 111 106 103 102 99 62 30 31 22 60 114 94 123 94 57 42 59 76 67 75 76 78 82 77 81 82 81 82 82 83 82
56 56 58 57 57 58 57 54 49 43 36 29 24 28 40 55 61 51 51 51 43 50 54 58 62 62 66 61 48 40 37 35 34 31 40 46 49 50 49 47 48 57 67 78 84 86 90 95 99 96 88 91 89 97 109 93 91 101 81 92 116 116 53 23 18 349 322 95 305 241 172 62 61 78 101 101 110 108 100 100 95 94 93 91 89 85 86 85
53 53 56 58 60 64 64 60 53 47 42 40 35 31 55 81 64 49 52 49 41 48 53 58 64 61 69 69 47 42 37 33 53 60 49 47 50 55 53 51 52 59 69 79 89 93 95 100 100 92 81 80 92 106 105 61 61 86 52 70 90 123 57 30 21 358 316 33 353 265 237 116 134 136 139 145 138 133 125 124 116 112 106 101 98 92 90 87
53 52 52 55 59 60 62 53 43 40 39 41 44 42 50 83 65 59 60 52 47 54 60 65 73 67 69 67 44 43 44 46 54 53 52 54 57 62 66 67 68 71 75 81 91 97 102 107 98 85 76 82 93 108 101 72 59 13 253 117 39 87 110 53 33 23 3 350 352 291 247 122 157 166 156 163 159 156 143 137 132 123 114 106 103 96 92 88
53 51 49 50 48 43 39 28 21 26 33 41 50 49 41 70 100 78 65 63 60 56 64 74 72 70 67 57 38 40 43 43 39 39 45 50 59 67 72 76 79 81 83 86 94 106 113 106 85 68 66 76 71 101 107 102 83 13 10 103 34 55 133 139 55 32 1 294 327 317 193 134 162 169 166 179 177 180 161 147 144 131 120 107 102 98 95 91
50 48 47 45 40 36 31 30 30 26 33 55 62 58 51 54 118 124 57 73 72 54 60 75 75 70 63 42 28 30 33 35 32 36 44 49 68 84 85 92 95 91 87 87 90 97 99 86 69 62 57 52 6 319 118 98 93 59 51 96 50 18 30 203 80 21 0 305 273 333 176 142 141 161 172 184 186 194 185 168 161 149 129 110 102 100 98 94
41 40 40 40 35 33 33 44 46 31 37 76 76 71 64 59 67 105 85 100 93 43 51 51 49 78 54 24 16 19 27 32 31 35 40 49 75 102 107 118 120 108 79 69 66 73 80 71 68 73 46 36 19 358 75 83 84 107 96 121 108 76 47 40 30 1 358 352 94 80 161 142 143 166 179 186 191 201 196 187 187 176 157 141 127 115 113 107
34 34 32 34 31 29 35 44 46 34 40 86 93 79 72 65 67 69 74 79 69 60 42 34 40 93 45 10 11 18 32 34 32 32 36 50 81 109 124 124 137 143 86 53 34 46 70 69 52 62 34 24 22 6 17 19 349 72 92 112 120 117 89 40 352 356 353 352 47 29 155 160 170 179 186 191 196 209 208 204 205 196 184 176 163 151 145 135
30 31 28 30 27 27 32 38 45 41 47 73 92 68 38 44 58 58 61 67 67 68 67 49 54 85 69 18 21 28 36 36 33 33 32 34 67 85 101 106 77 70 73 49 20 39 63 74 56 47 22 4 3 1 344 314 313 32 88 96 101 119 107 136 285 6 342 307 49 2 305 194 191 194 194 195 200 214 218 211 210 203 197 195 186 183 174 168
27 28 27 29 27 27 30 36 43 46 56 67 68 71 65 48 82 75 63 64 64 64 62 55 55 61 47 26 28 32 42 40 36 37 36 39 62 62 39 49 59 53 43 346 73 53 55 72 61 15 350 335 335 338 280 265 282 2 70 84 81 91 69 46 300 356 339 280 180 157 249 222 212 211 200 199 207 216 216 211 211 206 203 205 201 201 196 194
25 24 24 27 26 26 27 32 36 41 60 70 61 69 77 83 97 99 86 77 62 55 52 47 47 45 37 27 26 30 38 36 30 32 36 44 62 64 48 49 55 43 11 330 139 69 62 72 46 350 324 261 278 296 240 219 247 29 62 292 27 34 339 270 281 354 343 278 232 186 228 233 219 217 211 209 213 218 216 213 211 206 206 208 206 207 207 207
26 23 23 23 22 23 25 30 34 41 56 62 51 65 78 90 98 97 96 94 65 46 39 37 35 32 31 25 18 28 41 38 18 18 24 35 54 60 54 47 46 47 22 11 54 79 74 60 10 345 255 211 137 64 227 201 180 49 356 295 335 30 316 254 98 353 328 306 307 232 239 248 225 216 217 216 217 220 218 215 215 212 210 210 207 208 207 211
29 26 24 22 21 20 24 32 35 42 48 49 56 67 83 95 104 108 94 97 82 35 29 31 26 24 24 18 10 28 47 45 22 13 17 24 38 51 52 44 42 56 38 31 62 77 67 29 356 324 205 187 112 64 30 242 158 85 348 329 344 357 314 300 328 320 282 234 277 267 258 254 223 216 220 215 214 219 217 215 218 218 217 216 213 212 210 212
31 29 27 23 24 22 24 32 33 38 42 42 51 62 80 95 113 125 94 104 99 15 13 22 20 19 16 10 10 34 55 44 27 14 16 23 26 43 61 38 29 57 33 24 66 77 56 15 348 317 129 84 232 63 27 308 236 156 137 11 343 320 301 295 301 297 270 221 166 299 284 266 197 212 222 209 205 216 216 215 218 217 217 218 218 219 219 218
27 28 27 24 26 22 24 32 30 31 35 37 40 50 67 84 114 116 86 121 78 356 359 8 10 12 11 7 7 44 94 36 22 17 19 24 24 47 75 24 34 78 102 20 76 89 54 24 10 23 117 96 103 89 32 318 277 211 147 123 181 270 272 276 276 257 272 296 125 236 285 290 249 221 221 207 205 213 213 216 220 217 216 216 217 221 221 222
23 23 22 23 24 23 29 35 32 31 31 32 32 40 58 78 103 94 14 119 51 355 352 355 1 8 10 12 16 67 101 349 0 18 22 27 32 56 77 16 31 70 67 214 94 79 25 23 36 31 68 124 91 64 23 316 298 314 118 249 273 273 265 257 244 237 279 329 227 191 246 283 278 265 219 212 214 217 216 219 221 219 218 216 218 223 224 226
17 17 16 19 21 23 33 35 30 31 33 29 25 30 33 42 78 333 18 135 6 355 357 352 3 9 10 25 35 64 52 4 6 10 15 28 39 58 75 47 46 67 19 249 77 74 13 19 30 12 7 38 13 360 341 291 297 19 63 289 291 283 268 246 234 230 289 318 265 179 179 271 270 233 83 153 219 226 228 224 220 219 218 218 220 225 230 234
13 11 11 12 16 21 26 27 24 24 26 24 21 21 3 349 277 296 78 159 338 21 1 349 349 354 357 30 38 43 41 26 20 1 15 37 41 60 89 74 80 90 49 21 67 98 68 40 33 2 12 14 343 333 305 270 310 360 322 270 268 264 253 229 241 230 184 272 280 127 152 272 282 243 123 142 217 241 239 227 221 217 214 214 219 224 231 238
8 7 7 6 10 17 18 16 17 19 16 13 12 3 352 351 251 133 53 237 329 353 323 356 357 346 354 25 35 26 29 24 10 7 32 47 45 59 83 81 64 81 79 62 71 95 89 87 68 32 20 328 305 309 296 257 304 334 268 241 220 200 198 202 238 261 243 247 276 63 93 270 291 285 131 135 181 280 267 234 217 212 209 209 212 217 226 238
6 5 5 5 7 9 12 12 11 12 7 360 355 349 341 342 353 115 64 195 13 333 333 17 15 359 15 59 31 10 14 18 9 11 30 32 32 37 40 38 22 15 140 71 70 98 112 112 77 32 5 338 288 250 243 220 248 270 241 259 256 205 184 204 169 186 246 249 93 47 323 250 249 252 86 65 20 310 285 271 233 215 205 201 203 210 222 236
6 3 359 2 6 5 7 8 7 5 359 353 347 345 343 336 11 75 310 316 352 11 31 20 5 23 27 84 42 2 348 12 12 19 24 15 29 31 29 20 347 319 57 28 29 96 117 99 15 263 6 3 322 248 172 192 251 293 270 294 302 304 269 241 199 196 248 322 98 35 342 267 248 259 359 14 357 321 289 281 281 245 205 191 194 207 219 232
6 3 359 358 1 2 5 5 3 359 353 350 346 352 35 91 45 91 281 321 3 17 23 340 353 4 317 24 42 358 334 2 360 15 16 4 43 65 62 41 5 311 5 3 338 355 95 122 21 224 36 1 350 351 36 322 342 356 345 334 334 349 336 294 291 262 264 42 112 61 340 280 256 274 9 4 346 329 310 295 293 256 190 178 188 204 211 220
7 4 358 354 355 357 359 1 360 357 350 349 348 2 52 43 52 108 276 292 342 359 7 339 323 358 19 47 20 325 28 68 356 3 13 16 43 48 53 35 19 2 319 344 9 359 334 152 18 10 329 350 9 39 7 305 330 13 347 315 344 24 333 296 311 312 304 326 289 161 237 269 269 44 33 353 340 344 342 339 347 165 164 168 185 198 205 221
2 3 354 350 353 354 358 360 357 355 347 345 2 63 65 352 217 162 292 290 336 337 2 350 300 360 44 46 25 301 322 50 20 18 24 32 51 29 12 5 9 8 319 328 42 328 279 252 35 16 340 349 7 34 325 278 272 85 230 271 348 30 315 287 348 348 321 312 277 211 235 267 263 73 46 17 26 43 43 70 118 145 161 175 191 202 222 257
354 354 350 347 351 351 355 357 357 358 348 342 22 74 64 323 210 133 54 23 72 348 289 269 311 39 47 15 41 43 327 6 3 12 39 45 80 60 45 358 1 5 357 358 23 330 300 281 94 78 79 28 358 345 335 319 310 274 273 21 54 31 293 273 46 100 186 267 267 219 268 276 160 71 46 44 64 80 84 134 143 151 172 191 212 230 252 278
347 349 349 346 350 353 351 354 358 355 350 6 74 92 111 152 199 170 34 36 91 8 308 237 3 23 25 286 350 1 347 346 342 352 50 36 66 73 39 60 24 359 6 339 104 49 314 291 93 128 172 46 357 305 59 31 354 309 325 64 93 117 208 262 279 281 239 262 262 235 281 291 322 360 67 83 57 27 225 217 215 228 228 236 252 260 270 289
348 347 349 348 347 349 346 352 356 341 1 52 86 115 175 186 176 177 121 66 125 285 347 61 23 9 289 314 10 344 332 335 358 20 57 344 48 102 306 359 70 19 14 263 251 75 297 289 77 146 267 23 3 257 212 66 52 31 50 81 9 287 294 202 292 313 304 290 287 276 289 291 279 285 9 29 14 355 330 284 267 275 283 290 288 284 287 299
349 344 347 349 345 348 350 350 340 319 70 78 113 156 175 195 136 130 132 97 119 281 62 106 58 37 10 4 16 338 341 2 11 16 37 5 31 152 292 306 39 17 17 341 304 96 293 306 46 151 238 318 356 286 293 37 71 90 127 121 34 329 303 313 326 308 295 295 301 310 298 286 259 73 352 355 9 8 1 358 341 326 322 312 301 298 300 306
351 350 352 350 349 353 350 347 18 42 76 74 136 149 117 159 138 113 123 114 99 5 77 137 141 90 79 24 10 7 11 18 17 9 15 8 352 169 235 279 309 3 8 39 49 332 102 285 286 319 207 259 295 33 341 332 345 322 231 40 49 152 257 280 225 209 289 287 295 297 278 276 66 75 340 359 28 36 28 19 6 345 326 314 308 307 308 311
355 360 349 350 356 358 355 19 42 45 71 71 55 87 83 129 122 100 97 95 72 65 89 108 114 113 131 126 77 48 36 35 30 22 34 20 314 336 109 262 332 346 322 327 45 344 335 233 287 310 318 310 14 40 341 318 311 307 311 350 345 301 277 275 254 131 98 266 279 301 289 290 336 71 358 39 71 89 89 350 335 329 321 317 315 313 312 313
7 15 342 348 354 357 16 48 41 38 74 71 46 68 80 93 111 107 97 82 66 76 91 93 89 103 133 127 97 146 137 78 65 34 34 358 322 354 68 83 348 337 319 334 30 10 357 295 279 284 293 327 2 24 360 323 293 309 318 343 355 262 235 267 275 312 137 252 54 31 274 285 32 105 85 100 134 158 301 312 320 321 317 316 315 315 316 317
7 3 341 350 357 3 38 69 44 34 50 53 56 73 74 59 69 105 77 41 42 58 74 81 71 83 134 166 135 158 180 142 133 120 92 225 245 254 193 176 360 346 331 329 339 167 183 14 298 283 275 143 110 131 87 27 181 207 269 195 234 278 348 295 303 2 296 239 215 246 253 260 82 113 141 168 192 274 305 313 317 315 314 315 313 313 315 317
357 359 355 5 360 357 51 88 98 78 45 51 65 64 66 57 41 46 20 6 32 41 83 93 83 75 101 133 124 142 193 175 159 164 147 178 198 190 191 191 9 6 321 360 31 185 236 359 331 305 313 16 175 204 183 187 239 245 233 173 187 95 74 55 110 90 270 231 214 248 262 257 85 114 174 215 261 296 310 315 315 312 311 312 311 312 314 314
351 360 31 28 16 29 94 108 127 131 128 90 86 60 59 66 44 45 68 55 53 61 91 103 120 107 107 122 103 101 259 239 147 150 145 187 217 213 199 203 202 95 124 108 93 160 260 307 279 304 328 322 314 322 324 324 306 279 211 181 197 163 149 216 247 233 258 226 192 226 260 277 296 286 279 286 296 306 313 315 314 311 309 308 307 310 313 313
48 63 39 34 32 56 84 93 113 127 147 150 118 96 91 90 55 68 89 84 82 89 87 105 132 120 113 144 118 110 112 15 98 151 182 196 201 201 204 203 195 152 132 141 133 123 106 264 243 251 259 271 292 312 22 5 305 281 257 224 216 202 199 224 261 240 244 253 240 241 256 274 285 286 292 300 303 308 313 314 311 308 308 309 309 311 313 313
91 82 344 33 42 62 76 76 89 114 142 160 141 154 140 114 101 124 122 172 137 122 90 102 164 182 170 167 156 141 154 99 69 145 179 194 164 184 211 206 197 182 160 154 141 117 156 241 220 227 244 255 280 294 306 249 268 270 274 267 249 228 214 215 232 236 244 288 271 243 243 267 280 288 295 300 300 305 308 305 301 300 303 307 309 312 313 314
110 136 139 117 66 73 73 62 92 108 112 120 122 145 142 136 173 185 174 166 156 164 162 165 214 228 211 182 163 143 168 218 209 164 164 189 165 158 199 219 219 211 188 170 157 134 233 261 180 182 262 260 266 279 278 255 258 265 269 265 259 248 229 224 237 243 243 257 262 268 278 279 283 289 292 293 295 299 299 297 295 294 298 303 306 307 307 309
116 114 121 118 112 131 123 112 119 111 99 96 114 158 172 168 176 184 158 134 145 217 218 246 235 201 180 199 185 142 193 250 310 212 179 169 182 181 191 221 218 220 196 155 139 169 213 246 153 180 290 285 275 276 272 257 262 268 265 257 253 251 242 239 247 250 247 253 262 273 278 277 278 281 283 286 289 291 293 292 292 293 297 302 303 301 302 305
153 141 140 124 105 110 119 125 131 117 93 102 137 172 178 173 176 179 175 175 171 180 197 239 233 148 147 188 205 260 241 221 310 275 176 163 191 199 209 201 165 179 189 156 126 185 207 298 80 100 290 289 294 303 288 270 269 271 275 269 255 251 250 251 255 254 251 254 257 264 270 271 270 270 273 281 286 288 289 289 290 294 299 302 302 302 304 305
168 156 152 136 107 106 124 133 138 130 131 177 169 167 179 196 184 158 155 203 210 180 200 200 138 123 100 248 223 261 275 232 257 265 185 199 229 200 199 188 160 157 175 177 164 177 206 243 87 94 282 280 317 346 315 302 289 276 276 273 251 232 234 249 252 228 219 246 257 258 262 268 274 272 272 280 286 287 288 290 294 299 303 304 304 305 307 307
173 157 155 144 117 144 162 152 135 136 166 176 161 166 184 203 182 164 145 212 214 221 218 189 154 136 126 231 231 250 268 248 251 254 226 230 232 222 215 186 176 177 169 162 168 167 201 206 129 78 287 274 97 341 309 304 297 278 255 245 210 193 209 251 267 237 211 227 257 260 260 282 298 298 292 291 293 293 294 299 304 307 307 306 303 304 307 309